GEFSMA_500_meanwind_162.txt.gz
Wind_Speed
10 10 10 10 10 10 10 10 9 9 8 9 10 10 9 9 9 9 9 10 10 11 12 13 14 14 15 14 15 15 15 16 17 17 18 18 18 18 18 18 19 20 20
10 10 11 11 11 11 11 10 9 9 8 9 9 9 9 10 10 10 10 10 10 11 13 13 13 14 15 15 15 16 16 16 16 18 19 18 18 19 19 19 20 20 20
10 11 11 11 11 11 11 10 9 8 8 8 8 9 9 10 11 11 11 11 11 12 13 13 14 14 15 15 15 15 15 16 17 18 19 19 19 19 20 20 20 19 20
10 11 11 11 11 11 11 10 9 8 7 7 7 8 9 9 11 11 11 12 12 12 12 13 14 14 16 16 16 16 15 17 18 18 19 19 20 19 19 20 20 20 20
10 11 11 11 11 11 10 10 9 7 7 6 7 7 8 8 9 10 11 12 13 13 12 12 14 15 16 16 16 16 17 17 18 18 20 19 20 20 20 21 21 20 21
10 10 11 11 11 11 10 9 9 8 7 6 6 6 7 8 8 9 10 12 13 13 12 13 13 15 16 16 16 17 17 18 18 18 19 19 20 20 21 22 23 22 22
10 10 10 11 11 11 10 10 9 8 7 6 6 6 6 6 8 8 9 11 12 12 13 13 14 15 15 15 16 16 17 17 18 18 18 19 20 21 23 24 24 24 24
10 10 10 11 11 10 10 10 9 8 7 6 5 5 5 5 6 7 8 9 11 12 13 13 13 14 15 15 16 16 17 16 16 17 18 19 19 20 23 24 25 25 24
9 10 10 10 11 11 10 10 10 9 8 7 6 5 4 4 5 6 7 8 9 11 12 13 13 13 14 15 15 16 17 16 16 17 18 18 18 18 21 23 24 24 24
9 10 10 10 10 11 10 10 10 9 8 7 6 5 4 3 3 5 6 7 9 10 11 12 13 13 14 14 15 16 16 17 17 17 17 18 18 19 21 23 23 24 24
9 9 10 10 11 11 10 10 10 9 8 7 6 5 4 3 3 4 5 7 8 10 11 12 13 14 14 14 14 15 16 17 17 17 17 17 18 19 21 23 23 24 24
8 9 9 10 10 11 11 10 10 9 8 8 7 6 4 4 3 4 5 6 8 9 11 12 13 14 14 14 15 15 16 17 18 18 18 18 18 19 20 22 24 25 25
8 8 9 9 10 10 11 10 10 9 9 8 7 6 5 5 4 4 5 6 7 9 10 12 13 14 14 14 15 16 17 17 19 19 19 19 20 20 21 22 24 25 26
8 8 9 9 9 10 10 10 10 9 9 8 8 7 6 6 6 6 6 7 7 8 9 11 13 14 15 15 15 16 18 18 19 20 21 21 21 21 22 22 24 26 27
7 8 9 9 9 10 10 10 10 9 9 9 8 8 7 7 7 7 7 8 8 9 10 10 12 13 14 15 15 16 17 18 18 20 21 22 22 23 23 24 24 25 27
8 9 10 10 10 10 10 10 10 9 9 9 9 9 8 8 8 8 8 8 9 9 10 11 12 14 15 15 16 17 18 19 20 20 21 22 23 24 25 25 26 27 28
10 10 11 11 11 11 11 11 11 11 10 10 10 10 10 10 10 9 9 10 10 10 11 12 13 14 15 16 17 18 19 20 21 22 22 23 23 24 26 26 27 28 28
11 11 12 12 12 12 12 12 12 12 12 12 12 11 11 11 12 12 12 12 12 12 13 13 14 15 16 17 18 19 20 21 22 23 24 25 25 25 26 27 28 28 29
13 13 13 13 13 13 14 14 14 14 14 14 14 14 14 14 14 14 14 14 14 15 15 16 16 17 18 19 20 20 20 21 22 23 24 26 26 27 27 27 28 29 30
14 14 15 15 15 15 15 15 16 16 16 16 16 16 16 17 17 17 17 17 17 17 18 18 19 19 20 21 22 22 22 23 24 24 25 26 27 28 28 28 29 30 31
15 16 16 17 17 17 17 17 17 18 18 19 19 19 19 19 19 19 19 19 20 20 20 21 22 22 22 23 24 25 25 25 26 26 27 27 28 29 30 30 30 31 31
18 18 18 19 19 20 20 20 21 21 21 21 22 22 22 22 22 21 21 21 22 22 23 23 24 24 25 26 26 27 28 28 28 28 29 29 30 31 31 32 32 32 32
20 20 21 21 22 22 23 23 24 24 24 24 24 24 24 24 24 24 24 24 24 24 25 26 26 27 27 28 28 29 29 30 30 30 30 30 31 32 32 32 33 33 34
22 23 24 24 24 24 25 25 26 26 26 26 26 26 26 27 27 27 27 26 27 27 28 28 29 29 30 30 30 30 31 31 32 32 32 32 32 32 32 33 34 34 35
25 25 26 26 26 27 27 27 28 28 29 29 29 29 29 29 30 30 30 30 30 30 31 31 32 32 32 32 33 33 33 33 33 34 34 33 33 34 34 34 36 37 37
27 28 28 28 28 29 30 30 31 31 31 32 32 32 33 33 33 33 34 34 34 34 34 34 34 35 35 35 36 36 36 36 36 35 36 36 36 36 36 36 37 38 40

GEFSMA_500_meanwind_168.txt.gz
Wind_Speed
8 9 9 9 9 9 9 9 9 8 8 9 8 8 8 8 8 8 8 9 9 9 10 11 11 12 11 11 11 11 12 13 14 16 16 16 16 15 15 15 15 16 18
8 9 9 10 10 10 10 10 9 8 8 8 8 8 8 8 8 8 9 9 9 9 10 11 12 12 11 12 12 12 13 13 15 15 16 17 17 16 16 15 14 17 17
9 9 10 10 10 11 11 10 9 8 7 7 7 7 8 8 8 8 9 9 10 9 10 10 11 11 11 11 12 13 14 13 15 16 16 16 16 17 16 16 16 17 18
9 10 10 11 11 11 11 10 9 7 7 6 6 6 7 7 7 8 8 9 9 10 10 10 11 11 11 12 12 13 14 15 15 16 16 16 17 17 17 17 17 18 19
9 10 11 11 11 11 11 10 9 8 7 6 6 6 6 6 6 7 7 8 9 10 10 10 10 11 11 11 12 13 14 15 15 16 16 17 17 18 18 18 18 17 18
9 10 11 11 11 11 11 10 9 8 7 6 6 6 6 5 5 6 7 7 8 9 10 10 10 11 11 11 12 13 14 14 16 16 16 17 18 19 19 19 19 19 19
10 10 11 11 11 12 11 11 10 9 8 7 6 5 5 4 5 5 6 6 7 8 9 9 10 11 12 12 12 13 14 14 15 16 17 18 19 19 20 20 20 20 20
9 10 10 11 11 11 12 11 10 9 8 7 6 6 5 4 4 5 5 6 7 7 9 9 10 10 12 12 13 13 14 14 15 15 17 18 19 20 20 21 20 19 20
9 10 10 10 11 11 12 12 11 10 9 7 6 6 5 5 4 4 5 6 6 7 8 9 9 10 11 13 12 13 14 14 14 15 16 17 18 19 20 20 21 22 21
8 9 10 10 11 11 11 11 11 10 9 8 7 6 6 5 5 4 4 5 6 7 8 9 9 10 11 12 13 13 13 14 14 15 16 17 18 18 18 19 20 21 22
8 9 9 10 11 11 11 11 11 10 9 9 8 7 6 6 5 5 5 5 6 7 8 9 10 10 11 12 12 13 13 14 14 15 16 17 17 17 17 19 20 20 22
8 8 9 10 11 11 11 11 11 10 9 9 8 8 7 6 6 6 6 6 7 7 8 9 10 11 11 11 12 12 13 13 13 14 16 17 18 17 18 19 21 21 22
8 8 9 10 10 11 11 11 11 10 10 9 9 8 8 7 7 7 7 7 7 8 8 9 10 11 11 12 12 13 14 13 13 14 15 16 17 17 17 18 20 21 22
8 8 9 9 10 10 11 11 11 11 10 10 9 9 8 8 8 8 8 8 8 8 8 9 10 11 12 12 13 13 14 15 15 15 16 16 17 18 17 17 19 21 22
8 8 9 10 10 11 11 11 11 11 10 10 10 10 10 9 9 9 9 9 9 9 10 10 10 10 12 13 14 15 15 15 16 16 16 16 17 18 19 19 20 20 21
9 9 10 10 11 11 12 12 11 11 11 11 11 11 11 11 11 11 11 11 11 11 11 11 11 12 12 13 14 15 16 16 18 18 17 18 18 18 19 20 21 22 22
10 10 11 12 12 12 12 13 13 13 12 12 12 12 12 12 12 13 13 13 13 13 13 13 13 14 14 15 15 16 17 18 18 19 19 20 20 20 21 22 23 24 24
11 11 12 13 13 13 13 14 14 14 14 14 14 14 14 14 14 14 14 14 14 15 15 15 15 16 17 17 17 17 18 19 20 20 21 22 23 23 23 24 24 25 26
12 13 13 14 14 14 15 15 16 16 16 16 16 16 16 16 16 16 16 17 17 17 17 17 18 18 19 19 19 20 20 21 22 22 23 23 25 25 25 26 27 28 28
14 14 15 15 16 16 16 17 18 18 18 18 18 18 18 18 19 18 19 19 20 20 20 20 20 21 21 21 22 22 23 23 24 25 25 26 27 27 28 28 29 30 30
15 16 16 17 18 18 18 19 19 20 20 20 20 20 20 21 21 21 22 22 23 23 23 23 23 23 23 24 24 25 25 26 27 28 28 29 29 30 30 30 31 32 32
17 18 19 19 20 21 21 21 22 22 22 22 22 23 23 23 24 24 24 24 25 25 25 25 25 26 26 26 27 27 27 28 28 29 30 31 32 32 33 33 33 34 34
19 20 21 21 22 23 23 23 23 23 24 24 25 25 26 26 26 26 26 26 26 27 28 28 28 28 29 29 29 29 30 31 31 31 32 32 33 34 35 35 35 36 36
22 22 23 23 24 24 24 24 24 25 26 26 27 27 27 27 27 28 28 29 29 29 30 31 31 32 32 33 33 33 33 33 34 34 35 35 35 35 35 36 36 37 37
24 24 25 25 25 26 26 27 27 27 28 29 29 30 30 30 30 31 31 31 31 32 33 33 34 34 35 36 36 37 37 37 37 37 38 38 38 38 38 37 37 38 38
26 26 27 27 27 28 29 29 30 31 32 32 32 32 32 33 33 34 34 34 34 35 35 35 36 37 37 38 40 41 41 41 41 41 41 42 41 41 40 40 40 39 40

GEFSMA_500_meanwind_174.txt.gz
Wind_Speed
6 6 6 6 6 7 7 7 7 7 7 7 6 6 7 7 7 7 8 8 9 9 9 9 9 11 11 11 11 12 13 14 14 16 16 16 15 15 14 15 15 16 16
6 7 7 7 7 7 7 7 7 7 6 6 6 6 6 6 6 7 8 8 9 9 8 9 9 9 10 11 11 12 13 14 14 15 16 16 16 15 14 15 16 16 16
6 7 7 7 7 7 7 7 7 6 6 5 5 5 5 6 6 7 7 8 8 9 8 9 9 9 10 10 10 11 12 14 14 15 16 16 16 16 16 16 16 17 17
6 7 7 8 8 8 8 7 7 6 5 5 4 4 5 5 5 6 7 7 8 8 9 9 9 9 9 10 10 11 13 14 14 15 16 17 17 17 16 16 17 17 17
6 6 7 8 8 8 8 8 7 6 5 5 4 4 4 4 4 5 6 6 7 8 8 9 9 10 9 10 11 11 13 13 14 14 15 16 17 17 17 17 17 17 17
5 6 7 8 8 8 9 9 8 7 6 5 4 4 3 4 4 5 5 5 6 7 7 8 9 9 10 11 11 11 12 13 14 14 14 16 17 18 18 18 17 18 18
5 6 6 7 8 9 9 9 8 8 7 6 5 4 3 3 3 4 5 5 5 6 7 8 9 9 9 10 11 12 12 13 14 15 15 16 18 19 19 19 19 19 19
5 6 6 7 8 9 9 9 9 8 7 7 6 5 4 3 2 3 3 4 5 6 7 8 9 9 10 11 12 12 12 12 13 15 16 16 17 18 19 19 20 20 20
5 6 6 7 8 8 9 9 9 8 7 6 6 5 4 3 3 2 3 4 5 6 7 8 9 10 10 11 12 13 13 13 13 14 15 16 17 18 19 20 21 21 21
5 5 6 7 7 8 9 9 8 8 8 6 6 5 4 4 3 2 2 3 5 6 7 8 9 10 10 11 12 14 14 14 15 14 15 16 17 18 19 20 22 22 22
4 5 6 7 7 8 8 8 8 8 8 7 6 6 5 4 4 3 3 4 5 6 7 8 9 10 11 12 13 13 14 15 15 15 15 17 18 19 20 21 21 22 22
5 5 6 6 7 8 8 8 8 8 8 7 7 6 6 5 5 4 5 5 6 6 7 8 9 10 11 12 13 14 14 15 16 16 16 17 17 19 20 21 21 22 22
5 5 6 6 7 8 8 8 8 8 8 7 7 7 6 6 6 6 6 7 7 7 7 8 9 10 11 12 14 14 14 15 16 16 16 17 18 18 19 21 22 23 23
5 5 6 6 7 8 9 9 9 9 8 8 8 7 7 7 7 7 7 8 8 8 8 9 10 11 12 13 14 15 15 16 17 18 18 18 19 19 20 21 22 23 24
5 6 6 7 8 8 9 10 10 10 10 9 9 9 9 9 9 9 9 9 9 10 10 10 11 11 13 14 15 16 17 17 17 18 18 18 20 21 21 22 23 24 24
6 6 7 8 8 9 9 10 10 11 11 11 11 10 10 10 10 11 11 11 11 11 11 11 12 13 14 15 16 17 18 19 19 18 19 19 20 22 22 23 25 25 25
7 7 8 9 9 9 10 11 12 12 12 13 13 13 13 13 13 13 13 13 13 13 13 13 14 14 15 16 17 18 19 19 20 20 21 21 22 22 23 24 26 26 27
8 9 9 10 10 11 12 12 13 13 14 14 15 15 15 15 15 15 15 15 15 16 16 16 16 17 17 18 18 19 20 21 21 22 22 23 24 24 23 24 25 26 27
9 10 11 11 12 13 13 14 14 15 16 17 17 17 17 17 17 17 17 17 17 18 19 19 19 19 20 20 21 21 22 23 24 24 25 25 26 26 25 25 26 27 27
11 11 13 13 14 14 15 15 16 17 18 18 18 18 19 19 19 19 19 19 20 21 21 21 21 22 22 23 23 23 24 25 25 26 27 28 28 29 29 28 28 29 30
12 13 14 15 16 16 17 17 18 19 19 19 20 20 20 21 21 21 22 22 23 23 23 24 24 24 24 25 25 25 26 26 27 28 28 29 30 31 32 32 32 32 33
14 15 16 17 18 18 18 19 20 20 21 21 21 22 22 23 23 24 24 24 25 25 25 26 26 27 27 27 27 28 28 29 29 29 30 31 31 32 34 35 35 36 36
16 17 18 19 20 20 20 21 21 22 23 23 23 24 24 25 26 26 27 27 27 28 28 29 29 29 29 29 30 30 31 31 32 32 33 33 34 35 36 37 38 38 39
18 19 20 20 21 21 21 22 23 24 25 25 26 26 27 27 28 28 29 30 30 30 30 30 31 31 32 32 32 33 33 34 35 36 36 36 37 38 39 40 41 41 41
19 21 21 22 23 22 23 24 25 25 26 27 28 29 29 30 30 31 32 32 32 33 33 33 33 33 34 34 35 35 36 37 37 38 40 40 40 41 41 42 43 44 45
20 21 22 23 23 24 25 26 26 27 28 29 30 31 32 33 33 33 34 34 34 35 35 36 36 37 37 38 39 39 40 40 41 42 43 44 45 45 45 45 47 48 48

GEFSMA_500_meanwind_180.txt.gz
Wind_Speed
5 5 6 6 7 7 7 6 6 7 7 7 6 6 6 6 6 6 6 7 7 8 8 9 10 11 12 11 11 12 12 14 15 15 16 16 16 16 16 16 15 16 16
5 5 6 7 7 7 7 7 6 6 6 6 6 6 5 5 5 5 6 6 7 7 8 8 9 10 11 11 12 12 13 14 15 15 15 16 16 16 16 16 16 17 17
5 5 6 7 7 7 7 6 6 6 6 5 5 5 5 4 4 4 5 5 6 7 8 8 8 9 10 11 12 13 14 15 15 15 15 15 16 17 16 16 16 17 17
4 5 6 7 7 7 7 7 7 6 6 5 5 5 4 4 4 4 4 5 5 6 7 8 9 9 9 11 12 12 13 14 15 15 15 16 16 17 16 16 16 17 18
4 5 5 7 7 7 7 7 7 7 6 6 5 5 5 4 4 4 4 5 5 5 6 7 8 9 9 10 10 11 12 14 15 15 15 16 17 17 16 16 17 17 17
4 4 5 6 7 7 7 7 7 7 7 6 6 5 4 4 4 4 4 4 5 5 6 7 7 8 9 10 10 10 11 13 15 15 15 16 17 17 17 17 17 17 17
3 4 5 6 7 7 8 8 8 7 7 7 6 6 5 4 4 3 4 4 5 5 6 7 8 8 10 11 10 10 11 12 14 16 16 17 17 17 18 18 18 18 19
3 4 5 5 6 7 7 7 8 7 7 7 7 6 5 5 4 4 3 4 5 5 6 7 7 8 9 11 12 12 12 13 14 16 17 18 18 18 18 19 19 19 20
3 4 4 5 6 7 7 7 7 7 7 7 6 6 6 5 5 5 4 4 5 5 6 7 7 8 10 11 12 13 13 14 15 15 17 18 19 18 18 19 19 20 20
3 3 4 5 6 6 7 7 7 7 7 7 7 6 6 6 5 5 5 5 5 6 6 7 8 9 10 11 12 13 14 16 16 16 17 18 19 19 19 20 20 21 21
4 4 5 5 6 6 7 7 6 7 7 7 7 7 6 6 6 6 6 7 7 7 8 8 9 10 10 11 12 13 14 16 17 17 18 18 19 20 20 20 21 21 22
4 4 5 6 6 6 7 7 7 6 7 7 7 7 7 7 7 7 7 8 8 9 9 9 10 11 11 12 12 14 15 16 17 18 19 20 20 21 21 21 22 22 23
4 4 5 5 6 6 7 7 7 7 7 8 8 8 8 8 8 8 8 8 9 9 10 11 11 12 12 13 14 14 15 16 17 18 20 21 22 22 22 23 23 24 24
5 4 5 5 6 6 7 7 7 8 8 8 9 9 10 10 10 10 10 10 10 11 11 12 12 13 14 15 16 16 17 18 19 19 20 20 22 23 23 25 26 25 26
6 5 5 5 6 6 7 8 8 9 9 9 10 11 11 11 12 12 12 12 12 12 13 14 14 14 15 16 17 18 19 19 20 20 21 21 22 23 24 25 26 27 27
7 6 6 6 7 7 7 8 9 9 10 11 11 12 13 13 13 13 14 14 14 14 15 15 15 16 16 17 17 19 20 21 22 22 23 23 24 25 26 27 28 28 28
7 7 7 7 7 8 8 9 10 11 11 12 13 13 14 14 14 14 15 15 15 16 16 16 17 17 18 18 19 20 21 22 23 24 25 26 26 27 27 27 28 29 29
9 9 9 8 9 9 10 11 12 13 13 14 14 15 16 16 16 16 17 17 17 18 18 18 19 19 20 20 21 22 23 24 25 26 27 27 28 28 28 28 30 31 31
10 10 10 10 10 11 12 12 13 14 15 16 16 17 17 17 17 18 18 19 19 19 20 20 21 21 22 23 24 24 25 26 27 28 29 30 30 30 31 32 32 33 34
11 11 11 11 12 13 14 15 16 16 17 18 18 18 19 19 19 20 20 20 21 21 22 23 23 24 25 26 26 27 28 28 29 30 31 32 32 32 33 33 33 34 35
12 12 12 13 14 14 16 16 17 18 19 19 19 20 20 21 21 22 22 23 23 24 24 25 26 27 27 28 29 29 30 30 31 31 32 33 33 33 34 35 35 35 36
13 14 14 15 16 17 17 18 19 20 21 21 21 21 22 23 23 24 25 25 26 27 27 28 28 29 29 30 30 31 31 32 32 33 33 33 34 34 35 36 37 37 38
14 15 16 17 17 18 19 20 21 22 22 22 23 23 24 24 25 26 27 28 28 29 30 30 30 31 31 32 32 33 33 33 34 34 34 35 35 37 38 38 39 40 41
15 16 17 18 19 20 21 22 22 23 24 24 24 25 26 27 27 28 29 30 30 31 31 32 32 33 33 34 35 35 36 36 37 37 37 37 38 39 40 42 43 44 44
16 17 18 19 20 21 22 23 24 25 26 26 27 28 29 30 31 31 32 32 33 33 34 34 35 36 37 37 37 38 38 39 39 40 41 41 42 43 43 44 46 47 48
18 19 20 21 22 23 24 25 26 27 28 29 30 31 31 33 34 35 35 35 36 36 37 37 38 39 39 40 40 40 41 41 42 42 43 45 45 46 46 47 48 49 50

GEFSMA_500_meanwind_186.txt.gz
Wind_Speed
3 4 4 4 4 5 5 5 5 5 5 5 5 5 4 5 5 5 6 7 8 8 9 10 11 12 13 13 13 14 14 14 15 16 17 17 16 16 16 17 16 16 16
2 3 4 4 5 5 5 5 5 5 5 5 5 4 4 4 4 4 5 6 7 8 8 9 10 11 12 13 13 13 14 14 15 16 17 17 17 17 17 17 16 17 17
2 3 3 4 5 5 5 5 5 5 5 5 5 4 4 4 3 4 5 5 6 6 7 8 9 10 11 12 13 13 13 15 15 16 17 18 18 18 17 18 17 17 18
1 2 3 4 5 5 5 5 5 5 5 5 5 4 3 3 3 4 4 5 5 6 7 8 9 9 10 12 13 13 13 15 15 16 17 18 18 17 17 18 18 18 18
1 2 3 4 4 5 5 5 5 5 5 5 5 4 3 3 3 4 4 5 5 5 6 7 9 9 10 11 12 13 14 15 16 17 17 18 18 18 18 18 18 18 18
1 2 3 3 4 5 5 5 5 5 5 5 5 4 4 4 4 4 4 4 5 5 5 6 8 9 10 11 11 12 13 14 15 17 18 18 17 18 19 19 18 18 18
1 2 2 3 4 4 5 5 5 5 5 5 5 4 4 4 4 4 4 4 4 5 5 6 8 9 10 11 11 12 13 14 15 16 18 19 19 19 19 20 20 19 19
2 2 3 3 4 4 4 5 5 5 5 5 5 5 5 4 4 4 4 4 4 5 6 6 7 8 10 11 12 12 11 13 14 15 16 17 19 20 20 21 21 21 21
3 3 3 3 4 4 4 4 5 5 5 5 4 5 5 4 4 4 4 4 5 6 7 7 7 9 10 11 12 13 13 13 14 15 16 17 18 20 21 22 22 23 22
3 3 3 3 4 4 5 4 5 4 4 5 4 4 5 5 5 5 4 5 5 6 7 8 9 9 10 11 12 13 13 14 16 16 17 18 20 21 22 22 23 24 24
4 3 3 4 4 4 5 4 4 4 4 5 5 5 5 5 5 5 5 6 7 7 8 9 10 10 11 11 12 13 14 15 16 17 18 19 20 21 22 23 24 24 25
4 4 4 4 4 5 5 5 5 5 4 4 5 5 5 5 6 6 7 7 8 8 9 10 10 11 12 13 13 14 15 15 16 17 19 20 21 22 23 24 25 26 26
5 5 5 5 5 5 5 5 5 5 5 5 6 6 6 6 7 7 8 8 9 9 10 11 12 12 12 13 14 15 16 17 17 18 19 20 21 22 23 25 26 26 27
6 6 6 6 6 6 6 5 6 6 6 6 6 6 6 7 8 9 9 9 10 11 12 12 13 14 15 15 16 16 17 18 19 20 20 21 22 22 23 25 26 27 27
7 7 7 7 7 7 7 7 6 7 6 6 7 7 8 9 9 10 10 11 12 12 13 14 14 15 16 17 17 18 19 20 21 22 22 22 23 24 25 25 27 28 29
8 8 8 8 8 8 8 8 8 8 8 8 9 9 10 11 11 12 12 13 13 14 14 15 16 16 17 18 18 19 20 21 22 23 24 25 25 26 26 27 28 29 30
10 10 10 10 10 9 9 9 9 9 10 10 11 11 12 12 13 13 14 15 15 16 16 17 18 18 18 19 20 21 21 22 24 25 26 27 28 29 30 30 30 31 32
11 11 11 11 11 10 10 10 10 10 11 12 13 13 14 14 15 15 16 16 17 18 18 19 20 20 21 22 22 23 24 25 26 26 27 28 29 30 31 32 32 33 34
13 13 13 12 12 11 11 11 11 12 13 14 14 15 15 16 16 17 18 18 19 20 21 21 22 22 23 24 25 26 26 27 28 28 29 30 31 31 32 33 34 34 35
14 13 13 13 13 13 12 13 13 13 14 15 15 16 16 17 18 19 20 21 21 22 23 24 24 25 26 27 28 29 29 29 30 31 32 32 33 33 33 34 35 35 36
14 14 14 14 14 14 14 14 14 14 15 16 16 17 18 19 20 21 22 23 23 24 25 26 27 28 29 29 30 31 31 32 32 32 33 33 34 34 35 36 37 37 38
15 15 14 14 14 14 14 14 15 16 16 17 18 19 20 21 22 23 24 25 26 27 27 28 29 30 31 31 32 32 33 33 34 34 35 35 36 36 37 38 38 39 40
14 14 14 15 15 15 15 15 16 17 18 19 20 21 22 23 24 25 26 27 28 29 30 30 31 32 33 33 33 34 34 35 36 36 37 37 38 39 40 41 42 43 44
15 15 14 14 15 16 17 17 18 19 19 21 22 23 24 25 26 27 28 29 30 31 32 33 34 35 35 36 36 36 37 38 39 39 40 40 41 42 43 44 45 46 47
14 15 15 15 16 17 18 19 20 20 22 23 25 26 27 28 29 30 31 31 32 34 34 35 36 36 37 38 38 39 40 40 41 42 42 43 44 44 45 46 48 49 50
15 15 16 17 18 19 20 21 21 23 24 26 27 28 30 31 31 33 33 34 35 36 36 37 37 38 38 39 40 42 43 44 44 44 44 45 46 47 47 47 49 50 51

GEFSMA_500_meanwind_192.txt.gz
Wind_Speed
3 4 4 4 5 5 5 5 6 6 6 6 6 5 5 4 4 4 5 5 5 5 6 8 8 9 9 10 11 11 12 12 13 14 15 15 14 13 12 12 13 14 14
3 4 4 4 5 5 5 6 6 6 6 6 6 6 5 5 5 5 5 5 5 5 5 6 8 8 9 10 10 10 11 12 13 14 15 16 16 14 14 13 14 14 14
3 3 4 4 5 5 6 6 6 6 6 6 6 6 5 5 5 5 5 5 5 5 5 6 7 8 9 9 9 10 11 12 13 12 13 15 15 15 15 14 14 14 14
3 3 3 4 5 5 6 6 6 6 7 7 6 6 5 5 5 5 5 5 5 5 5 5 6 7 8 9 10 10 11 12 12 12 11 13 15 15 15 15 15 14 14
2 3 3 4 5 6 6 6 6 6 7 7 7 6 5 5 5 6 6 6 6 6 6 6 6 7 7 8 9 9 10 11 11 12 12 13 14 15 16 16 16 16 16
3 3 3 4 5 6 6 6 6 6 7 7 7 6 6 5 6 6 6 6 6 6 6 7 7 7 8 9 9 9 10 11 11 12 13 14 14 15 16 17 18 18 18
3 3 3 4 5 5 5 6 6 6 7 7 7 7 6 6 6 6 6 6 6 7 7 7 7 7 8 9 9 9 11 12 12 12 13 14 15 16 17 18 18 19 20
3 3 4 5 5 5 5 6 6 6 7 7 7 7 7 7 6 6 6 6 7 7 7 8 8 8 9 10 10 10 10 11 12 13 14 14 16 17 17 18 19 19 20
4 4 4 4 5 5 5 6 6 7 7 7 7 7 7 7 7 7 7 7 7 7 8 8 8 9 9 10 10 11 11 12 12 13 14 15 16 17 17 18 20 20 21
5 5 5 5 5 5 5 6 6 7 7 7 7 7 7 7 7 7 7 7 8 8 8 9 9 9 9 9 10 11 11 11 11 12 13 14 16 18 18 20 21 21 22
6 6 6 5 5 5 5 6 6 7 7 7 7 7 8 8 8 8 8 8 9 9 9 9 10 10 10 10 10 11 12 13 13 13 14 15 16 18 19 20 21 22 23
7 7 6 6 5 5 6 6 7 7 7 7 7 8 8 8 8 9 9 9 9 10 10 10 11 11 11 11 12 12 12 13 14 15 15 16 17 18 19 20 21 22 23
7 7 7 6 6 6 6 7 7 7 7 7 8 8 8 9 9 10 10 10 10 10 11 11 12 12 12 13 13 14 14 15 15 16 17 18 19 19 21 21 22 23 24
8 8 7 7 7 7 8 8 8 8 7 8 8 9 9 9 10 11 11 12 12 12 12 13 13 13 14 14 14 15 15 16 17 18 18 19 20 21 22 23 24 24 25
9 9 9 9 8 8 8 8 8 8 8 8 9 9 9 10 11 12 13 13 13 13 13 14 14 15 16 16 16 17 17 18 18 19 20 21 22 23 24 25 25 26 26
10 10 10 10 10 9 9 8 8 9 9 9 9 10 10 11 12 12 13 14 14 15 15 15 16 16 17 18 19 19 20 20 20 21 22 23 24 25 26 27 28 28 28
11 11 11 11 11 10 10 10 10 10 10 10 10 11 12 13 13 14 14 15 16 16 17 17 17 18 19 20 20 21 22 22 23 23 24 25 26 27 28 29 30 30 31
12 11 12 12 12 11 11 11 11 11 12 12 12 12 13 14 15 15 16 17 17 18 19 19 20 20 21 22 22 23 24 24 25 26 27 27 28 29 30 30 31 31 32
13 13 13 13 13 13 13 13 13 13 13 13 14 14 14 15 16 17 18 18 19 20 20 21 22 22 23 24 24 25 25 26 27 28 29 29 29 30 31 32 32 33 33
14 14 14 15 15 15 15 14 14 14 14 15 15 16 16 16 17 18 19 20 20 21 22 23 24 25 26 26 27 27 27 28 29 29 30 31 31 32 33 34 35 35 35
15 15 15 16 16 15 15 14 14 15 15 16 17 17 17 18 19 19 20 21 22 23 24 25 26 27 27 28 29 29 30 30 31 31 32 33 33 34 35 36 37 38 38
16 15 16 15 15 15 15 15 15 16 17 18 18 19 19 19 21 22 23 24 24 25 26 27 28 29 30 30 31 31 32 32 33 34 35 35 36 36 37 38 38 39 40
16 15 15 14 14 15 15 16 17 18 18 19 20 20 21 21 22 24 24 25 26 27 28 29 30 31 32 33 33 34 34 35 35 36 37 38 39 39 40 40 41 42 42
15 14 14 14 15 15 16 17 17 18 19 20 21 22 23 23 24 25 26 27 28 29 30 31 32 33 34 35 36 36 37 38 38 39 40 40 41 41 42 43 43 44 45
16 15 15 16 16 17 18 18 19 20 21 21 22 23 24 25 27 28 29 30 30 32 32 34 35 36 36 37 38 39 40 41 41 41 42 43 43 43 44 45 45 46 46
16 17 17 18 18 18 18 19 20 21 22 23 24 25 26 27 29 30 31 32 32 34 35 36 37 37 38 39 40 42 43 44 44 44 44 45 46 46 46 46 47 47 48

GEFSMA_500_meanwind_198.txt.gz
Wind_Speed
2 2 2 3 2 2 3 4 4 4 4 4 3 2 2 2 3 3 3 3 2 3 4 5 7 8 8 9 9 10 10 11 12 12 12 12 12 12 12 12 13 12 13
1 1 2 2 2 2 3 4 3 3 4 4 4 3 2 2 2 3 3 3 3 3 4 5 6 7 8 8 9 10 10 11 12 12 12 12 12 13 13 13 13 13 13
1 1 2 2 2 2 3 3 3 4 4 4 4 4 3 3 3 3 3 3 3 4 4 5 6 7 7 8 9 10 10 11 12 13 13 14 13 13 13 13 14 14 14
1 1 2 2 2 2 3 4 4 4 4 4 4 4 4 3 3 3 3 3 3 3 4 5 6 7 7 8 8 9 10 11 12 13 14 15 15 15 14 14 14 15 15
1 1 1 2 2 2 3 3 4 4 4 4 4 4 4 4 4 4 4 4 4 3 4 4 5 6 6 7 8 9 9 10 10 12 13 15 15 15 14 14 15 15 15
1 2 2 2 2 2 2 3 4 4 4 4 4 4 4 4 4 4 4 4 4 4 4 4 4 5 6 7 8 8 8 9 9 9 10 12 13 15 15 15 16 16 16
2 2 3 3 2 2 2 2 3 4 4 4 4 4 4 4 4 4 4 5 5 5 5 4 4 5 6 6 8 8 8 8 8 8 8 10 12 13 14 15 16 16 17
3 3 3 3 3 3 2 2 3 3 3 4 4 4 5 4 4 5 5 5 5 6 6 5 5 5 5 6 7 7 8 8 8 8 8 10 11 13 14 16 17 17 18
4 4 4 4 4 3 3 3 2 3 3 4 4 4 5 5 5 5 6 6 6 6 6 6 6 6 5 6 6 7 8 8 9 9 9 10 12 13 15 16 17 18 19
5 5 5 5 4 3 3 3 3 3 4 4 4 4 5 5 5 5 6 6 6 7 7 7 7 7 6 6 6 7 8 9 9 10 11 11 12 13 15 16 17 19 20
5 5 5 5 5 4 4 4 4 5 5 5 5 5 5 5 5 5 6 6 6 7 7 7 7 8 8 8 8 7 8 9 10 11 12 13 14 15 16 17 18 19 20
6 6 6 6 5 5 5 5 5 5 5 5 5 5 5 5 6 6 6 7 7 8 8 8 9 8 9 9 9 9 9 9 10 11 12 13 14 16 17 18 19 21 22
7 7 6 6 6 6 6 5 5 5 5 5 5 5 6 6 6 7 7 7 8 8 9 9 9 9 10 10 11 11 12 12 12 13 13 14 16 17 18 19 21 22 23
8 7 7 7 6 6 6 6 6 6 5 6 6 6 6 6 7 7 8 8 9 10 10 11 11 11 11 12 13 13 14 15 15 16 16 17 17 18 19 20 21 22 23
9 9 8 8 8 7 7 7 7 7 7 7 7 7 7 7 8 8 9 9 10 11 11 12 12 13 14 14 15 15 15 16 17 18 19 19 20 21 21 22 23 24 24
9 9 9 8 8 8 8 8 8 8 8 8 8 8 9 9 10 10 11 11 12 12 13 14 14 15 16 16 16 17 18 18 19 20 21 22 22 23 24 25 26 26 27
10 10 10 10 9 9 9 10 10 9 9 10 10 10 11 12 12 12 12 13 14 14 15 16 16 17 17 17 18 19 20 21 21 22 23 23 24 25 26 27 28 29 29
11 11 11 11 10 11 11 11 11 11 11 12 12 12 13 13 13 14 14 15 15 16 16 17 18 18 19 20 20 21 22 23 24 24 25 26 27 27 28 29 30 31 31
13 13 13 13 12 12 12 12 12 12 13 13 14 14 14 14 15 15 16 16 17 18 19 19 20 21 22 22 23 23 24 25 26 26 27 28 29 30 31 31 32 33 34
14 14 14 14 14 13 13 13 14 14 14 15 15 15 15 16 17 17 17 18 19 20 20 21 22 23 24 25 25 26 27 27 28 29 30 31 32 33 34 35 35 36 37
14 14 14 14 14 14 14 15 15 15 15 16 16 16 17 18 18 19 19 20 21 21 22 23 24 25 26 27 28 29 29 30 31 32 33 34 35 36 37 37 38 39 39
15 15 15 14 14 15 15 16 16 16 16 17 18 18 19 19 20 20 21 22 23 23 24 25 26 27 28 29 30 31 32 32 33 34 36 37 38 38 38 39 39 40 41
15 15 16 15 16 17 17 17 17 17 18 19 19 19 19 20 21 22 23 24 24 25 26 27 28 29 30 31 32 34 35 35 37 38 38 39 40 40 40 41 42 43 43
15 16 16 16 17 18 18 18 18 18 18 19 19 20 21 22 23 24 25 26 27 28 28 29 31 32 33 34 35 36 37 38 39 40 41 41 41 42 43 44 45 45 46
16 16 16 16 16 17 18 18 18 18 19 20 21 22 23 23 24 25 26 28 29 30 31 32 33 34 36 37 38 39 39 40 41 41 42 43 43 44 45 46 46 47 47
16 16 16 16 17 17 18 18 18 19 20 21 22 23 24 25 25 27 28 30 31 32 33 34 35 36 37 39 40 41 41 42 43 43 44 45 46 46 46 46 47 48 48

GEFSMA_500_meanwind_204.txt.gz
Wind_Speed
3 3 2 3 3 3 2 3 3 3 4 4 4 4 4 4 3 3 3 3 4 5 6 7 7 8 9 10 11 11 11 11 12 13 13 13 13 13 13 14 15 16 16
3 3 2 3 3 2 2 3 3 3 4 4 4 4 4 4 3 4 3 3 4 5 7 7 8 8 9 10 11 11 11 11 12 13 13 13 12 13 13 14 15 15 15
3 3 3 3 3 3 3 3 4 4 4 4 3 4 3 3 3 4 3 3 4 5 6 7 7 8 9 10 10 11 11 12 12 13 13 13 13 13 14 14 15 15 16
3 3 3 3 3 3 3 3 4 4 4 4 3 3 3 4 4 4 4 4 5 5 6 6 7 7 8 10 10 10 11 12 12 12 13 13 14 14 15 15 15 15 15
3 3 3 3 3 3 3 3 3 3 3 3 3 3 4 4 4 4 4 4 5 6 6 7 7 7 8 9 9 10 10 11 11 12 12 13 14 15 15 15 16 16 15
3 3 3 3 3 3 3 3 3 3 3 3 3 3 3 4 4 4 4 4 5 6 6 6 6 7 7 8 9 10 10 10 11 11 12 13 14 15 16 16 16 17 16
3 3 3 3 3 3 3 3 3 3 3 3 3 3 4 4 4 4 4 5 5 5 6 6 7 7 7 8 9 10 10 10 10 11 11 12 14 14 15 16 16 16 17
4 4 4 4 4 4 3 4 4 3 3 3 3 4 4 5 5 5 5 5 5 6 6 6 7 7 7 8 9 10 10 11 10 11 11 11 12 13 14 14 15 16 16
4 4 5 5 5 4 4 4 4 4 4 4 4 4 4 4 5 5 5 5 6 6 6 7 7 8 7 8 8 9 10 11 10 11 11 12 12 13 14 15 16 16 17
5 5 5 5 5 5 5 5 4 4 4 5 5 5 5 5 6 6 6 6 6 7 7 7 8 8 7 7 8 9 9 10 11 11 12 13 14 14 15 16 17 18 18
6 5 6 6 6 6 6 6 5 5 5 5 5 6 6 6 6 7 7 6 7 7 8 9 9 10 9 8 9 9 10 11 12 12 13 14 15 16 16 17 18 18 19
7 6 6 6 6 6 6 6 6 6 6 5 6 6 6 7 7 7 7 7 8 8 9 9 10 11 11 10 10 11 12 13 13 13 14 15 16 16 17 18 19 19 20
8 7 7 7 7 7 6 6 7 6 6 6 7 7 7 8 8 8 8 9 9 9 10 11 11 11 12 12 11 12 13 13 14 15 15 16 17 18 18 19 20 21 22
9 9 8 8 8 7 7 8 7 7 7 7 7 8 8 8 9 9 9 9 10 10 11 12 13 13 13 14 14 14 14 15 15 16 17 17 18 19 20 20 21 22 23
10 10 10 9 9 8 8 8 8 8 8 8 8 8 8 9 9 9 10 10 11 11 12 13 14 14 14 15 15 16 17 17 17 17 18 19 20 20 21 22 23 24 25
11 11 11 10 10 10 10 9 9 9 9 9 9 9 10 10 10 10 11 11 12 13 14 14 15 15 15 16 17 17 18 18 19 19 20 21 22 23 23 24 25 26 27
12 12 11 11 11 11 11 11 11 10 10 10 10 11 11 11 11 12 13 13 14 15 15 16 16 17 17 18 19 19 20 20 21 22 22 23 24 25 26 27 27 28 29
12 12 12 12 12 12 12 12 12 12 12 12 12 12 12 12 13 14 14 15 16 16 17 17 18 18 19 20 20 21 22 23 23 24 25 26 27 28 28 29 30 31 31
13 13 13 13 13 13 13 14 14 14 14 13 13 13 13 14 14 15 16 16 16 17 18 19 19 20 20 21 22 23 24 25 26 27 28 29 30 30 31 32 33 34 35
14 14 14 14 14 14 14 14 15 15 15 14 14 14 15 15 16 17 17 18 18 19 19 20 21 22 22 24 25 26 27 28 29 30 31 32 33 34 35 36 36 37 37
15 15 15 15 15 15 15 16 16 16 16 15 16 16 17 17 18 18 18 19 20 21 22 23 23 24 25 26 27 28 29 30 31 32 33 35 36 37 37 38 39 39 39
16 16 15 16 16 17 17 17 17 17 17 17 17 17 18 19 19 19 20 21 22 23 24 24 25 26 27 28 29 30 31 32 33 35 36 37 38 39 40 41 41 41 41
17 16 16 17 17 17 17 18 18 18 19 19 19 20 20 20 21 21 22 23 24 25 26 27 27 28 30 31 32 33 33 34 35 37 38 39 40 41 42 42 43 43 43
17 17 17 17 17 17 18 18 19 19 20 20 20 21 21 21 22 23 24 24 25 27 28 29 30 31 32 33 34 35 35 36 37 39 40 41 42 43 43 44 44 44 44
18 18 17 17 17 18 18 19 20 20 20 20 21 21 22 23 24 25 26 26 27 28 30 31 32 33 35 36 36 37 38 39 40 41 42 43 43 44 44 44 45 45 45
18 17 17 17 18 19 19 19 19 20 20 20 21 22 23 24 26 27 27 28 30 31 33 34 35 36 37 38 38 39 41 42 42 43 44 45 45 45 44 44 45 45 46

GEFSMA_500_meanwind_210.txt.gz
Wind_Speed
3 3 3 3 2 2 2 2 3 3 2 2 2 2 2 2 3 4 4 5 5 6 7 8 9 10 11 11 11 12 12 13 13 13 14 14 14 14 14 14 16 17 17
4 4 4 3 3 3 2 3 3 3 3 3 3 3 2 2 2 3 4 4 4 5 6 7 8 9 10 11 12 12 12 13 13 13 14 14 14 14 14 14 15 16 18
4 4 3 3 3 3 3 3 3 4 3 3 3 3 3 3 2 2 3 4 4 5 6 7 8 9 10 10 11 11 12 12 13 13 13 13 13 14 14 15 15 16 17
4 4 3 3 3 3 3 3 3 3 3 3 3 2 2 2 2 2 2 4 4 5 6 7 7 8 9 9 10 10 11 12 12 13 13 13 14 14 15 15 16 16 17
4 3 3 3 3 3 3 3 3 3 3 3 3 2 2 2 3 3 3 3 4 5 6 6 7 7 8 9 9 10 11 12 12 13 13 13 14 15 16 16 16 16 17
4 4 4 4 4 4 4 4 3 3 3 3 3 2 2 3 3 3 4 4 5 6 6 7 7 7 8 8 8 9 10 11 11 12 12 14 14 15 17 17 17 16 16
4 4 4 4 4 4 4 4 3 3 3 3 3 3 3 4 4 4 4 5 5 6 6 7 7 7 8 8 9 9 9 10 11 11 12 13 14 15 16 17 16 17 17
5 4 4 4 4 4 4 4 4 4 4 4 4 4 4 4 4 4 5 5 6 6 7 7 7 7 8 8 9 9 10 11 12 12 12 13 14 14 15 16 16 17 18
5 4 4 4 4 4 4 4 4 5 5 4 4 4 5 5 5 5 5 6 6 6 7 7 6 7 8 8 9 9 10 11 12 12 12 13 13 14 14 15 16 18 19
5 5 4 5 5 4 5 5 5 5 5 5 5 5 5 5 6 6 6 6 7 6 7 7 7 7 8 9 9 10 10 12 13 13 13 13 14 14 15 17 18 19 20
6 6 6 6 5 5 5 5 5 5 5 5 5 6 6 6 6 6 7 7 7 7 7 8 7 8 9 9 10 10 11 12 13 13 13 14 14 15 16 17 18 19 20
7 7 7 6 6 6 6 5 5 6 6 6 6 6 6 6 7 7 7 7 7 8 8 8 9 9 9 10 10 11 12 12 13 14 14 15 16 16 17 19 19 20 20
9 8 8 7 7 7 7 6 5 6 6 6 6 6 7 7 7 7 7 7 8 8 9 9 9 10 10 10 10 11 12 13 14 15 16 16 17 17 18 19 20 21 22
10 10 10 9 9 8 8 8 7 7 7 7 7 7 7 7 7 8 8 8 9 9 10 10 11 11 11 12 12 12 13 14 15 16 17 17 18 18 19 20 21 22 23
10 11 11 10 9 9 9 9 8 8 8 8 8 7 7 8 8 8 9 9 10 10 11 11 12 12 13 13 14 15 15 16 16 16 17 18 19 19 21 22 23 24 25
12 11 11 11 11 10 10 10 10 9 9 9 9 8 8 9 9 9 10 10 11 11 12 12 13 13 14 15 16 16 17 17 18 18 19 20 20 21 22 23 25 26 27
13 12 12 12 12 11 11 11 11 11 10 10 10 10 10 10 11 11 11 11 12 13 13 14 14 15 16 16 17 17 18 19 20 20 21 22 23 24 25 26 27 28 29
14 14 14 13 13 12 11 11 11 11 11 12 12 12 12 12 12 12 12 12 13 14 14 15 16 16 17 18 18 19 20 21 21 22 23 24 25 26 27 29 30 31 32
14 14 14 14 14 14 13 13 13 13 13 13 13 13 13 13 13 14 14 14 14 14 15 16 17 18 19 20 20 21 22 23 23 24 26 27 28 29 30 31 32 33 34
15 14 13 14 14 14 14 14 14 14 15 15 15 14 14 14 14 15 15 15 16 17 18 18 19 20 21 22 23 23 24 25 26 27 28 29 30 32 33 34 35 36 37
15 15 14 14 14 14 14 15 15 16 16 16 16 16 16 16 17 17 17 17 18 19 20 21 21 22 23 24 25 26 27 28 28 29 30 31 33 34 35 36 37 38 39
15 15 15 15 15 15 16 16 16 16 16 17 17 18 17 18 18 19 19 20 21 22 22 23 23 24 25 25 26 27 28 29 31 32 33 35 36 37 38 39 40 41 42
16 16 15 16 16 16 16 17 17 17 17 18 19 19 19 19 20 21 21 22 23 23 24 25 25 26 26 27 28 29 30 32 33 35 35 37 38 39 40 41 42 43 43
17 16 16 16 17 17 16 17 17 18 19 20 20 20 21 21 21 22 22 23 24 24 25 26 27 28 29 29 31 32 33 34 35 37 38 39 40 41 42 43 44 44 44
17 17 17 17 17 16 17 17 18 19 20 21 21 22 22 22 22 23 24 24 25 26 27 29 29 30 31 32 33 34 35 36 37 38 39 40 41 43 43 44 44 44 44
18 18 17 17 17 18 19 19 20 20 20 21 22 22 22 22 23 24 25 26 27 28 29 30 31 32 33 34 35 36 37 38 39 40 41 42 43 44 44 44 45 45 46

GEFSMA_500_meanwind_216.txt.gz
Wind_Speed
6 5 4 4 4 5 5 5 5 5 5 5 5 4 4 4 4 5 5 5 5 6 7 7 8 8 9 9 10 10 10 10 11 11 12 12 12 12 12 12 13 14 15
6 5 5 5 5 5 5 6 5 5 5 5 5 4 3 4 4 4 5 5 6 6 7 8 9 9 9 9 10 10 11 10 10 11 12 12 12 13 13 13 13 13 14
5 5 5 4 4 5 5 5 5 5 5 5 5 4 4 4 4 4 5 6 6 7 7 8 9 9 9 9 9 10 10 10 11 11 12 13 13 13 13 13 13 13 15
5 5 5 4 5 5 5 5 5 4 4 4 4 4 4 4 5 5 6 6 7 7 8 8 8 9 9 9 9 9 10 10 11 12 12 13 13 13 14 14 13 14 14
6 6 5 5 5 5 6 5 4 4 4 4 4 4 4 4 5 6 6 6 7 8 8 9 9 9 9 9 10 10 11 11 11 12 12 13 14 13 14 14 14 15 15
6 6 6 5 5 5 5 5 5 5 5 5 4 5 5 5 6 6 6 7 8 8 9 9 9 9 9 9 10 10 10 11 11 11 12 13 13 13 14 15 16 16 16
5 6 5 5 5 5 5 5 5 5 5 5 5 5 5 5 6 6 7 7 8 8 8 8 8 9 9 9 10 9 10 10 11 11 12 13 13 14 15 16 16 16 16
6 6 5 5 5 5 5 5 5 5 5 5 5 5 6 6 6 6 7 7 8 8 8 8 7 8 9 9 10 10 10 10 11 12 12 12 13 14 15 15 16 16 17
6 6 5 5 5 5 5 5 5 5 5 6 6 6 7 6 6 6 7 7 7 7 7 8 8 8 9 9 9 9 10 10 11 12 12 12 12 13 14 14 14 14 15
6 6 5 5 5 5 6 6 6 6 6 6 6 7 7 7 6 7 7 7 7 7 7 8 8 9 9 9 9 9 10 10 10 11 12 12 13 14 14 14 14 14 15
7 7 6 6 6 6 6 6 7 7 7 7 7 7 7 7 7 7 7 7 8 8 8 8 9 9 10 10 10 10 11 11 11 12 13 13 13 14 15 15 15 16 16
8 8 7 7 7 7 7 7 7 7 7 7 7 8 8 7 7 7 7 8 8 9 9 9 9 9 10 10 10 11 11 12 12 13 14 15 15 15 15 16 17 17 18
9 9 9 8 8 7 7 7 7 7 7 7 8 8 8 8 8 8 8 9 9 10 10 10 10 10 10 11 11 12 12 13 14 14 15 16 17 17 17 17 18 19 19
10 10 9 9 9 9 9 8 8 8 8 9 9 8 8 8 9 9 9 9 10 10 10 10 10 11 11 12 12 13 14 14 15 16 16 17 18 19 19 20 20 21 21
11 11 10 10 10 10 10 9 10 10 9 9 9 9 9 9 9 9 10 10 11 11 11 11 11 12 13 14 14 15 15 16 16 17 17 18 19 20 21 21 21 22 23
12 11 11 11 11 11 11 11 11 10 10 10 10 10 10 10 10 10 11 12 12 12 12 13 13 14 14 15 15 16 17 17 18 19 19 20 21 22 23 23 23 24 24
13 13 13 12 12 12 12 12 11 11 12 12 12 12 11 11 11 12 12 13 13 13 14 14 15 15 16 16 17 17 18 19 20 20 21 22 22 22 23 23 24 25 26
14 14 14 13 13 13 13 13 12 13 13 13 13 13 13 13 13 13 14 14 14 14 15 16 16 17 18 18 18 19 20 20 21 22 22 23 24 24 25 25 27 27 28
15 15 15 14 14 14 14 14 14 13 14 14 14 15 15 15 15 15 15 15 15 16 16 17 17 18 19 20 20 21 22 22 23 23 25 25 26 27 28 29 29 30 31
16 16 15 15 15 15 15 15 15 15 15 15 15 16 16 17 16 16 16 16 17 17 18 19 19 20 21 21 22 23 24 24 25 26 27 28 29 30 31 32 33 34 34
16 16 16 16 15 15 15 15 15 16 16 16 17 17 17 17 18 18 18 18 18 19 19 20 21 22 22 23 23 24 25 26 27 28 29 30 31 32 33 35 36 37 38
17 17 17 17 17 16 16 16 16 17 17 18 18 18 19 19 20 20 20 20 21 21 21 22 22 22 23 24 24 26 27 27 29 30 31 31 32 34 35 36 37 38 39
18 18 18 18 17 17 17 17 18 18 18 18 18 18 19 20 21 21 21 21 22 22 22 23 23 24 25 26 27 28 29 30 31 31 32 34 35 36 37 38 39 40 41
19 19 18 18 18 17 17 18 18 18 17 18 18 20 21 21 22 22 22 22 23 23 24 24 25 26 27 28 28 29 30 31 32 33 34 36 37 38 39 40 41 41 42
19 19 18 19 18 18 18 18 18 18 19 19 20 21 21 22 23 23 23 24 24 25 25 26 26 27 28 29 30 31 31 32 34 35 37 37 38 39 40 41 42 42 43
19 19 19 19 19 18 18 18 18 19 19 19 20 21 22 22 23 23 24 25 25 25 26 27 28 29 30 31 32 32 33 34 36 37 38 39 40 41 41 42 43 43 43

GEFSMA_500_meanwind_222.txt.gz
Wind_Speed
5 4 4 5 5 5 5 5 5 5 5 5 5 5 5 4 4 4 4 5 5 5 5 5 6 6 6 7 7 8 8 9 9 9 9 10 10 10 11 12 13 14 15
5 5 4 5 6 5 5 5 5 5 5 5 5 5 4 4 4 4 5 5 5 5 6 6 7 7 6 7 7 8 8 8 9 9 9 9 10 11 11 12 13 13 14
5 4 4 4 5 5 5 4 4 5 5 5 4 5 4 5 4 4 5 5 6 6 6 6 6 6 6 6 7 7 8 8 9 9 9 9 10 10 11 12 13 14 14
4 4 4 4 5 5 5 5 4 4 4 5 4 5 5 5 5 5 5 6 7 7 7 6 6 6 6 6 7 7 8 9 9 10 10 11 11 11 11 12 13 13 14
4 4 4 5 5 5 5 4 4 4 4 5 4 4 5 5 5 6 6 7 7 6 6 6 6 7 7 7 8 8 9 9 9 9 10 11 11 12 12 13 13 13 13
4 4 5 5 5 5 5 4 4 4 4 4 4 4 4 5 5 6 6 6 6 6 6 6 6 7 7 8 8 9 9 9 9 8 9 9 10 11 12 13 14 14 14
4 4 5 5 5 5 4 4 4 4 4 4 4 4 4 5 5 5 5 5 5 6 6 6 6 6 7 7 8 8 8 8 9 9 9 10 11 11 11 12 13 14 14
4 5 5 5 5 5 4 3 4 4 4 5 4 4 4 5 5 5 5 5 5 6 6 6 7 7 7 7 8 8 7 8 8 9 10 10 11 11 11 12 13 14 15
6 5 5 5 5 5 4 4 4 4 4 4 5 5 5 5 5 5 5 5 5 6 7 7 7 7 7 7 7 7 7 8 9 10 10 11 11 11 11 12 13 13 14
7 7 6 5 5 5 5 5 5 5 5 5 6 6 6 5 5 5 5 5 6 6 7 7 7 7 7 7 7 8 8 9 9 10 10 11 11 12 12 13 13 14 14
8 8 7 7 6 6 6 6 6 6 6 6 6 6 6 6 5 5 5 6 6 7 7 7 8 8 8 8 9 9 9 9 10 10 11 11 12 13 13 13 14 14 15
9 8 8 8 8 7 7 6 6 6 7 7 7 6 6 6 6 6 6 7 7 7 7 8 8 8 8 9 9 10 10 11 11 11 11 12 13 13 14 14 14 15 16
9 9 8 8 8 8 7 7 7 7 8 8 8 7 7 7 7 7 7 8 8 9 9 9 9 9 9 10 10 10 11 11 12 12 13 13 14 15 16 16 16 17 18
10 10 9 8 9 9 8 8 8 8 8 8 8 8 8 8 7 8 8 9 10 10 10 10 10 10 11 11 11 11 12 12 13 14 14 15 15 16 17 18 18 18 19
10 10 9 9 9 9 9 9 9 9 9 9 9 9 9 9 9 9 9 10 11 11 11 11 12 12 12 13 13 13 14 14 14 15 15 16 17 18 18 19 19 19 20
11 11 10 10 10 10 10 10 10 10 9 10 10 9 10 10 10 11 12 12 12 13 13 13 13 14 14 15 15 15 15 16 16 17 18 18 19 19 20 21 21 22 23
12 11 11 11 11 11 11 11 11 11 11 11 12 12 11 12 12 13 13 13 14 14 14 14 15 15 15 16 16 16 16 17 18 18 19 19 20 21 22 23 23 25 26
12 12 12 12 12 12 12 12 12 12 12 12 13 13 13 13 14 15 14 14 15 15 15 16 16 16 16 17 17 17 17 18 18 19 20 21 22 23 24 24 25 26 27
13 12 13 12 13 13 12 13 13 13 13 13 14 14 14 15 15 15 15 16 16 16 16 16 17 17 18 18 19 19 19 20 21 22 22 23 24 25 26 27 28 29 30
14 14 13 13 14 14 14 14 14 15 15 15 15 15 16 16 16 16 17 17 17 17 17 18 18 19 19 19 20 20 21 22 23 23 24 25 26 27 28 30 31 31 31
15 14 14 15 15 14 14 15 15 16 16 16 16 16 16 17 17 17 17 18 18 18 19 19 19 20 20 20 21 21 22 23 24 25 25 27 28 29 31 31 31 31 31
16 16 15 15 15 15 15 15 15 16 17 17 17 17 18 17 17 18 18 18 19 20 20 20 20 20 21 21 22 22 23 24 25 26 27 29 30 31 32 32 32 32 33
17 16 16 16 16 16 17 17 16 16 17 18 18 19 18 18 19 19 20 20 20 20 20 21 21 22 23 23 24 24 25 26 26 28 29 30 31 33 33 33 34 34 35
18 18 18 18 18 18 18 18 18 19 18 19 19 19 19 20 20 19 19 20 20 21 21 21 22 23 24 25 25 25 26 27 28 30 31 31 32 34 35 35 36 37 38
18 18 19 19 19 19 20 19 19 19 19 19 19 20 20 19 19 19 20 20 21 22 22 22 23 24 25 25 26 27 27 29 30 31 32 33 34 35 36 37 38 39 40
19 19 19 19 20 20 20 20 20 20 20 20 20 20 20 20 20 20 21 21 22 23 24 24 25 25 26 26 27 28 29 30 32 33 34 35 36 37 37 39 40 40 40

GEFSMA_500_meanwind_228.txt.gz
Wind_Speed
7 7 7 6 7 7 7 7 8 7 7 6 6 6 6 6 6 6 6 6 7 7 7 7 7 7 7 8 8 9 9 10 10 10 10 10 10 10 10 10 11 12 12
7 6 7 7 6 6 7 7 7 7 7 6 5 5 5 5 6 6 6 6 6 7 7 7 7 7 7 8 8 9 9 9 10 10 10 11 10 11 10 11 11 12 12
7 7 7 6 7 7 7 7 7 7 7 6 5 5 5 5 5 5 5 5 6 7 7 7 7 7 7 8 8 9 9 9 9 9 10 10 10 10 11 11 12 12 13
7 6 6 6 7 7 6 6 6 6 6 5 5 5 5 5 5 5 5 5 5 6 6 6 7 7 7 7 8 8 8 8 8 9 10 11 11 12 12 12 13 13 14
5 5 6 6 6 5 5 6 6 5 5 5 5 5 5 5 5 5 5 5 5 6 6 6 7 7 7 7 7 7 7 8 9 10 10 11 12 12 12 13 14 14 15
6 6 6 5 5 5 5 6 6 5 4 4 4 5 5 5 5 5 5 5 5 6 6 7 7 7 7 8 8 8 8 9 9 10 10 11 11 12 12 13 15 15 15
6 6 6 6 6 5 5 5 5 5 5 4 4 5 5 5 5 5 5 5 6 6 7 7 8 8 8 9 9 9 10 10 10 10 10 11 11 12 13 14 14 15 15
7 7 6 6 6 6 5 5 5 5 5 5 5 5 6 6 6 5 5 4 5 7 7 8 8 9 9 10 10 10 11 11 10 11 11 11 12 13 13 14 14 15 15
7 7 7 7 6 6 6 5 5 5 5 5 5 5 6 6 6 6 5 5 6 7 7 8 8 9 10 10 10 11 11 10 11 11 12 12 12 13 14 14 15 15 15
8 8 8 7 7 6 6 5 5 5 5 5 6 6 6 6 6 6 6 6 7 7 8 9 9 10 10 10 10 11 11 11 11 12 12 12 13 13 13 14 15 15 16
9 9 8 8 8 7 6 6 6 6 5 5 6 6 6 6 7 7 7 8 8 9 9 9 10 10 10 11 11 11 11 12 12 12 12 13 13 13 14 15 16 16 17
10 10 9 9 8 8 7 7 7 6 7 7 7 7 7 8 8 8 8 9 9 9 10 10 10 10 10 11 11 11 11 12 12 13 13 14 14 15 15 16 17 18 18
10 10 10 9 8 8 8 8 8 8 8 8 8 8 8 8 8 9 9 10 10 10 11 11 11 11 12 12 12 12 13 13 13 14 14 15 15 16 17 17 18 19 19
11 10 9 9 9 9 9 9 9 9 9 9 9 8 8 9 9 10 10 10 11 11 11 12 12 12 13 13 14 14 14 14 14 15 16 16 17 17 18 19 19 19 20
11 10 10 11 10 10 9 9 9 10 10 10 10 10 10 11 11 11 11 10 11 12 12 12 13 14 14 14 14 15 15 16 16 16 17 17 18 19 19 20 20 21 22
11 11 11 11 11 11 11 10 10 11 11 11 11 11 11 12 12 12 12 12 12 13 13 13 14 15 15 15 15 15 16 17 17 18 18 18 19 20 20 21 21 22 23
11 11 11 12 12 12 12 11 11 11 12 12 12 12 13 13 13 12 12 13 14 14 14 14 15 16 16 16 16 16 17 17 17 18 18 19 20 21 21 22 23 24 24
13 13 13 13 13 13 13 13 12 12 12 12 13 13 13 14 14 14 14 14 15 15 15 15 15 16 16 17 17 17 17 17 17 18 19 19 20 21 22 23 24 25 25
15 15 14 14 14 14 15 14 14 13 13 14 14 14 14 15 15 15 15 15 15 16 16 16 16 17 17 17 17 17 18 18 18 19 19 20 21 22 23 24 25 26 26
15 15 15 15 15 15 15 16 16 15 15 15 15 15 15 16 16 16 15 15 16 17 17 17 18 18 18 18 18 18 19 19 19 20 21 22 23 24 25 25 26 27 27
15 16 16 17 16 16 16 16 17 17 16 16 16 16 16 17 17 16 16 16 17 17 18 18 18 18 18 18 19 19 20 21 21 22 23 24 25 26 26 27 28 28 29
17 17 18 18 17 17 17 17 17 17 18 17 17 17 17 18 18 18 18 18 18 18 18 19 19 19 19 20 20 21 22 23 23 24 25 26 26 27 28 29 30 30 31
19 19 19 19 18 18 18 19 19 19 20 19 19 19 19 19 19 18 18 18 18 19 19 19 19 20 20 21 22 23 24 24 25 26 27 27 28 29 30 31 32 32 33
20 20 20 20 20 20 20 20 21 20 20 20 19 19 19 19 18 18 19 20 20 20 21 21 22 21 21 22 23 24 24 25 26 27 28 29 30 31 32 32 33 34 35
20 20 20 20 21 20 20 20 20 20 20 20 20 20 19 19 19 19 20 20 21 22 22 22 22 23 23 24 24 25 25 26 27 28 30 30 31 32 33 34 35 36 37
20 20 21 21 21 21 21 21 21 20 20 20 21 21 20 21 21 21 21 21 22 22 23 23 24 25 25 26 27 27 28 28 29 30 31 32 33 34 34 36 37 37 37

GEFSMA_500_meanwind_234.txt.gz
Wind_Speed
7 7 7 7 7 7 7 7 7 7 7 7 7 7 7 7 7 7 7 7 8 8 8 8 7 8 8 9 9 10 10 10 11 11 11 10 10 10 11 11 11 11 12
8 8 7 8 8 8 7 7 7 7 7 7 7 7 7 7 7 7 7 6 7 7 7 7 7 8 8 8 9 9 10 10 10 10 10 11 11 11 11 11 11 11 12
8 8 8 8 7 7 7 7 7 7 7 8 7 7 7 7 6 6 6 6 6 5 6 6 7 7 7 8 8 9 9 9 10 10 10 10 11 11 12 11 11 12 13
8 8 7 7 6 6 7 7 7 7 7 8 8 7 7 6 6 6 6 6 5 5 6 6 7 7 7 8 8 9 9 9 10 11 11 11 12 12 12 12 13 13 14
8 8 6 7 7 7 7 7 7 7 7 7 7 6 6 6 6 6 6 6 6 6 6 7 7 7 8 8 8 8 9 10 10 10 11 12 12 13 13 13 14 14 15
8 6 6 6 7 6 7 7 7 6 6 6 6 7 7 7 7 7 7 7 7 7 7 7 7 8 8 9 9 9 9 9 10 10 10 11 12 13 14 14 14 15 15
7 6 6 6 6 6 6 6 6 6 6 6 6 7 7 7 7 7 7 7 7 7 7 8 8 8 9 9 9 9 10 10 11 11 11 11 12 13 13 14 15 15 15
8 7 7 7 7 7 6 6 6 6 6 6 7 7 7 7 7 7 7 7 7 7 8 8 8 9 9 9 9 9 10 10 11 11 11 12 12 13 14 14 14 15 15
9 8 8 8 8 7 6 6 7 6 6 6 6 6 7 7 8 8 7 8 8 8 9 9 9 9 10 10 11 10 10 11 11 12 12 12 13 13 14 14 15 15 15
9 9 8 8 8 7 7 7 6 6 6 6 6 6 7 7 7 8 8 9 9 9 9 10 10 11 10 10 11 11 11 12 12 12 13 13 14 14 14 14 15 15 16
9 9 8 8 7 7 7 7 7 7 7 7 7 7 7 8 8 8 9 10 10 10 10 10 10 10 10 10 11 12 12 12 13 13 14 14 15 15 15 15 16 17 17
9 8 8 8 8 7 8 8 8 8 8 8 8 8 8 8 8 9 9 10 10 10 10 10 10 10 10 11 12 12 13 13 14 14 14 14 15 15 16 17 17 18 19
9 8 8 8 8 8 8 9 9 9 9 9 8 8 9 9 10 10 10 10 10 10 10 11 10 10 11 12 12 13 14 14 14 15 15 15 16 16 17 18 19 19 20
9 9 9 9 8 8 8 9 9 9 9 9 10 10 10 10 10 10 10 11 11 11 11 12 11 11 12 13 14 14 14 15 15 15 15 16 16 17 17 18 18 19 19
10 10 9 9 9 9 9 9 10 10 10 10 10 11 11 12 12 12 12 11 12 12 12 12 12 13 13 14 14 15 15 16 16 16 16 16 17 17 17 18 19 19 20
12 11 11 10 10 10 10 11 11 11 11 11 12 12 12 12 12 13 13 13 13 13 13 13 14 14 14 14 15 15 16 16 17 17 17 17 18 18 19 19 19 20 21
13 13 12 12 11 12 12 12 12 12 12 12 12 13 13 13 14 14 14 14 14 13 13 13 14 14 15 14 15 15 15 16 16 16 17 17 18 19 19 20 21 21 22
14 14 13 13 13 13 13 13 13 13 13 13 13 13 13 14 14 14 15 14 14 14 14 14 14 15 15 16 16 15 15 15 16 17 17 18 18 19 20 21 22 23 24
15 15 14 14 14 14 14 14 14 14 14 14 14 14 14 14 14 14 15 15 15 15 15 15 15 15 16 16 16 16 17 17 18 18 18 19 20 21 22 22 23 24 25
16 16 16 16 15 15 15 15 15 16 15 15 15 15 15 15 15 15 15 16 16 16 16 16 16 16 16 17 17 18 18 18 19 19 19 20 21 22 23 24 25 26 26
17 17 17 16 16 16 17 17 17 17 16 17 17 16 16 16 16 16 16 16 17 17 16 17 17 17 17 18 18 18 19 19 20 20 21 21 22 23 24 25 26 27 27
18 18 18 17 17 17 17 18 18 18 18 18 18 18 18 18 18 17 17 17 17 17 17 17 18 18 18 18 19 19 20 20 21 22 22 23 24 25 26 26 27 27 27
19 19 19 19 19 19 18 18 18 18 19 19 19 19 20 20 19 19 19 19 19 19 20 21 20 20 20 20 20 21 22 22 23 23 24 25 26 27 27 27 28 28 28
20 20 20 20 20 19 19 19 20 20 20 20 20 20 20 20 20 20 20 20 21 21 22 22 22 22 23 23 23 23 24 24 24 25 26 26 27 28 28 29 29 29 30
20 20 21 21 21 20 20 20 20 20 20 20 19 19 19 19 20 20 21 21 22 22 23 23 24 24 24 24 25 25 25 25 25 26 27 28 28 29 29 30 30 31 32
20 21 21 21 21 20 20 20 20 20 20 20 20 19 19 20 21 21 21 22 22 22 23 23 24 24 24 24 25 25 26 26 26 27 28 29 29 30 30 31 31 32 33

GEFSMA_500_meanwind_240.txt.gz
Wind_Speed
8 9 8 8 9 9 9 9 8 8 8 8 8 9 8 7 7 8 7 7 8 8 8 8 7 7 7 8 8 8 8 8 8 8 8 9 9 9 10 11 10 10 10
9 9 9 9 10 10 10 9 9 8 8 8 8 9 8 8 8 7 7 7 7 8 8 8 7 7 7 7 8 8 8 7 8 8 9 9 9 9 10 10 10 10 11
9 10 9 9 10 10 9 9 8 8 8 8 8 8 8 8 8 8 8 7 7 7 8 8 8 7 7 7 8 8 8 8 8 9 9 9 9 9 9 10 10 10 11
10 9 10 9 9 9 8 8 8 8 8 8 8 8 8 8 8 8 7 7 7 7 7 8 8 8 8 8 8 8 8 9 9 9 9 9 9 9 9 10 10 11 11
9 9 10 9 8 8 7 8 8 8 8 8 8 8 8 8 8 8 8 8 8 8 8 8 8 8 9 9 9 9 9 9 9 9 9 9 10 10 10 10 11 12 12
10 10 9 9 8 8 7 8 8 8 8 8 8 8 8 8 8 8 8 8 8 8 8 9 9 9 9 10 11 10 10 9 10 10 10 11 10 11 11 12 13 14 14
9 9 9 9 8 8 7 7 7 8 8 8 7 7 8 8 8 8 8 8 8 8 9 9 10 10 11 11 11 12 11 10 10 11 11 11 12 12 13 13 14 14 15
9 9 9 8 8 7 7 7 7 7 8 8 8 8 9 9 9 9 9 9 9 9 9 10 10 10 11 11 12 12 12 11 11 11 12 13 14 14 14 14 14 14 14
9 9 8 8 7 7 7 7 7 7 8 9 9 9 9 9 9 9 9 9 9 9 9 10 10 11 11 11 11 11 11 11 12 12 13 13 14 14 15 15 15 15 15
9 9 8 7 7 8 7 7 8 8 8 8 8 9 9 9 9 9 9 9 9 9 10 11 11 11 11 11 11 11 11 11 12 12 12 13 13 14 14 15 15 15 16
9 8 8 7 8 8 8 8 8 8 8 8 8 8 8 9 9 9 9 9 10 10 10 11 11 11 10 11 11 11 11 12 12 13 13 13 14 14 15 16 16 16 17
9 8 9 9 8 8 8 8 8 8 8 8 8 8 9 9 9 9 10 10 11 11 11 11 11 10 11 10 11 11 11 12 12 13 14 14 14 15 15 16 16 17 17
10 9 9 9 9 9 9 9 9 9 9 9 9 9 9 10 10 10 11 11 11 11 11 11 11 11 11 10 11 11 12 12 12 13 14 15 15 16 16 16 17 17 18
10 10 10 10 10 10 10 11 11 10 10 10 10 10 10 10 10 11 11 11 11 12 12 12 12 12 11 12 12 12 12 13 13 13 14 15 16 16 17 18 18 19 19
12 11 12 12 11 11 12 12 12 12 12 11 11 10 11 10 11 11 12 12 13 12 12 13 13 13 12 13 13 13 13 14 14 14 15 16 17 17 17 17 18 19 20
13 13 13 13 12 13 13 13 13 13 12 12 12 12 12 12 12 12 13 13 13 13 13 13 13 13 13 13 13 13 14 15 16 16 17 17 18 18 18 19 19 20 20
14 14 14 14 14 13 14 14 14 13 13 13 13 13 13 13 13 13 13 13 13 13 13 13 13 13 13 14 14 15 15 16 17 17 18 18 18 19 19 20 20 20 21
15 15 15 15 15 15 15 15 14 14 15 15 15 15 15 14 14 14 13 13 13 13 13 13 13 14 14 15 15 16 16 17 17 18 18 18 19 20 20 20 20 21 22
16 16 16 16 16 16 16 16 16 16 16 16 16 16 16 16 15 15 14 14 14 14 14 15 15 15 16 16 16 16 17 17 18 18 18 18 19 20 20 21 21 22 24
18 18 17 17 17 17 17 17 17 17 17 17 17 17 17 17 16 16 16 15 16 16 16 16 17 17 17 17 17 18 18 19 18 18 19 19 20 21 21 22 23 24 24
19 19 19 19 19 19 18 18 18 18 18 18 18 18 18 18 18 17 17 17 17 17 17 18 18 18 18 19 19 20 20 20 20 20 20 21 22 23 23 23 24 25 25
20 20 20 20 20 20 19 19 19 18 19 19 19 19 19 18 18 18 18 19 19 18 18 19 19 20 20 20 21 21 21 21 21 21 22 23 23 24 25 25 25 26 26
20 20 20 20 20 20 19 19 19 19 19 19 19 19 19 19 19 19 19 18 19 19 19 20 20 21 21 21 21 21 22 22 23 23 24 24 25 25 26 26 26 27 27
20 20 20 20 20 20 20 20 20 20 20 20 20 20 20 20 20 20 20 20 20 20 20 21 22 22 21 22 22 22 23 23 24 24 25 25 25 25 25 26 26 27 28
20 20 20 20 20 20 21 21 20 20 20 20 20 21 21 21 21 21 21 21 21 21 22 22 22 22 22 23 23 23 23 24 24 24 25 25 25 25 26 26 27 28 29
20 21 21 21 20 20 19 19 20 19 20 20 20 20 21 21 21 21 21 21 22 22 22 23 22 22 22 23 24 24 24 24 24 24 25 26 26 26 26 26 28 29 30

GEFSMA_500_meanwind_246.txt.gz
Wind_Speed
7 7 7 8 8 8 8 8 8 8 8 8 8 8 8 8 8 7 6 7 7 7 7 7 7 7 7 6 6 6 6 6 6 6 7 8 8 9 10 10 11 10 11
7 7 7 8 8 9 9 9 9 9 9 9 8 8 8 8 7 7 7 7 7 7 7 7 7 7 6 7 7 7 6 6 7 7 7 7 7 7 8 9 10 9 9
7 7 8 8 9 9 8 9 9 9 9 9 8 8 8 8 7 7 7 6 7 7 7 7 7 7 7 7 7 7 7 7 7 7 7 7 7 7 7 8 9 8 8
7 8 8 9 8 8 9 9 9 9 8 8 8 8 7 7 7 7 7 7 7 7 7 7 7 7 8 8 7 8 8 8 8 8 8 8 8 8 9 9 8 9 10
7 8 8 8 8 8 8 8 8 8 8 8 8 8 8 8 8 8 8 8 8 8 8 8 8 8 9 9 9 9 9 9 9 10 9 9 9 10 10 10 9 10 10
8 8 8 8 8 7 7 7 7 7 8 8 8 8 8 8 8 8 8 8 8 8 8 8 9 9 9 9 10 10 10 11 11 11 11 10 10 11 10 11 11 11 11
8 8 8 7 7 7 7 7 7 7 8 8 8 8 8 8 8 8 8 9 9 9 9 9 9 9 10 10 11 11 12 11 11 11 12 12 12 12 12 12 12 13 13
7 7 7 7 7 7 8 8 7 7 8 8 8 7 7 7 8 8 9 9 9 9 9 9 9 10 10 10 10 11 11 11 11 11 12 11 12 12 13 13 13 13 13
7 7 8 8 7 7 7 7 7 7 7 7 7 7 8 8 8 8 9 9 9 9 9 10 9 10 10 9 10 10 11 12 12 12 11 12 12 13 13 13 13 13 13
8 8 8 8 8 8 7 7 7 7 8 8 8 8 8 8 9 9 9 9 9 9 9 10 10 9 9 9 9 10 10 10 11 11 12 12 12 12 12 12 12 13 14
9 9 9 8 8 9 9 8 8 8 8 9 9 9 9 9 9 9 10 10 9 9 10 9 10 10 10 9 9 10 10 9 9 10 10 10 11 11 12 12 13 14 15
10 10 10 9 9 9 9 9 9 9 10 10 10 10 10 10 10 10 9 9 10 10 10 10 10 10 10 9 9 9 9 10 10 10 10 10 11 11 12 12 13 14 15
10 11 11 10 10 10 10 10 10 10 11 11 11 10 11 10 10 10 10 10 10 10 10 10 10 10 10 9 10 9 9 9 9 10 10 11 11 12 13 13 14 15 16
12 12 12 12 12 11 11 12 11 11 12 12 12 11 11 11 11 11 11 11 11 11 11 11 11 11 11 10 10 9 9 9 10 11 11 12 13 13 14 14 15 16 16
13 13 13 13 12 13 13 13 13 12 12 13 13 13 13 12 12 12 12 12 12 12 11 11 11 11 11 11 11 11 11 11 11 11 12 13 14 14 15 15 16 17 18
15 15 14 14 13 13 13 13 14 13 13 13 13 13 13 12 12 13 13 12 12 11 12 12 12 12 12 12 12 12 12 12 12 13 13 13 14 15 16 17 18 19 20
15 16 16 15 15 15 14 14 14 14 14 14 14 14 14 13 13 13 13 12 12 12 12 12 13 13 13 13 14 13 13 13 13 14 14 15 15 16 17 18 19 19 19
16 16 16 16 16 16 16 16 15 14 15 15 15 15 15 14 14 14 13 13 13 14 14 14 14 14 14 15 15 15 14 14 15 15 16 16 17 17 18 18 19 19 20
16 17 17 17 17 18 18 17 17 16 15 16 16 15 15 15 15 14 14 14 14 15 15 15 15 15 15 15 15 16 15 15 16 17 17 18 18 18 19 19 20 20 21
18 18 18 18 18 18 18 18 18 17 17 16 16 16 16 16 16 15 15 15 16 16 16 16 16 16 16 16 16 17 17 17 18 18 19 19 20 20 20 20 21 21 22
18 18 18 19 19 19 19 19 19 18 18 17 17 17 17 17 17 17 17 17 17 17 17 17 17 17 17 17 17 17 18 18 19 19 20 20 20 21 21 22 22 23 24
19 18 18 19 19 19 19 19 20 20 20 19 19 18 19 18 18 18 18 19 18 18 18 18 18 18 18 18 18 18 18 19 19 19 20 20 21 21 22 22 23 23 24
20 19 18 18 18 18 18 19 19 19 19 19 19 19 19 19 19 19 20 20 20 20 19 19 19 19 19 19 19 20 20 20 20 21 21 21 22 22 22 22 23 23 24
20 20 20 19 19 19 19 20 20 19 19 19 19 19 19 20 20 20 20 20 20 20 20 20 20 20 20 20 20 21 22 22 22 22 22 22 22 23 23 23 24 24 24
21 20 21 20 20 20 20 19 19 19 19 19 19 19 20 20 20 20 20 20 20 20 20 21 21 21 21 22 22 22 22 23 23 23 23 23 23 24 24 25 25 25 26
21 21 21 21 21 21 21 20 20 20 20 20 19 19 20 21 21 21 21 21 21 22 22 23 22 22 23 23 23 23 24 24 24 24 25 25 25 25 25 26 26 27 27

GEFSMA_500_meanwind_252.txt.gz
Wind_Speed
6 6 7 7 7 7 7 8 8 8 9 9 9 9 9 9 9 8 8 7 7 7 7 7 8 8 8 7 7 7 8 9 9 9 8 9 9 8 9 9 10 11 12
6 7 7 7 7 7 8 8 8 8 8 9 9 9 9 9 8 8 7 7 7 7 7 7 8 8 7 8 7 7 8 9 9 9 9 9 9 9 10 10 10 11 12
7 7 7 8 8 8 8 8 8 9 9 8 9 9 9 9 8 7 7 7 7 7 8 8 8 8 8 8 9 9 9 9 10 10 10 10 10 10 10 10 11 11 12
8 8 7 8 8 8 7 7 8 8 8 8 8 9 9 8 8 7 7 7 7 8 8 8 9 9 8 9 9 10 10 10 10 10 11 11 11 12 11 11 11 12 12
8 7 8 8 8 7 7 7 8 8 8 8 8 8 9 8 8 8 8 8 8 8 8 9 9 9 9 10 10 11 11 11 11 11 11 11 12 12 12 12 12 11 11
8 8 8 8 8 7 7 7 8 8 9 9 8 8 9 9 9 9 8 8 8 8 8 9 9 10 10 11 11 11 12 12 12 12 12 12 12 12 12 12 12 12 11
8 8 8 8 8 8 8 8 8 9 9 9 9 9 9 9 9 9 9 8 9 9 9 10 10 10 10 11 11 12 13 13 12 12 13 13 13 13 13 13 13 12 12
8 8 8 8 8 8 8 8 9 10 10 10 9 9 9 10 9 9 9 9 10 10 10 10 10 11 11 11 12 12 13 12 13 13 13 13 13 13 13 13 13 13 12
9 9 8 8 8 8 9 9 9 10 10 10 10 9 9 10 10 10 10 10 10 11 11 11 11 11 11 11 11 12 12 12 13 13 13 13 14 13 13 13 13 13 13
9 9 9 9 9 9 9 9 10 10 10 10 10 10 10 10 11 11 11 11 12 11 11 11 11 11 11 11 11 11 12 12 12 12 12 13 13 13 13 13 13 13 14
9 9 10 10 10 10 10 11 11 11 11 11 11 11 11 11 11 11 12 12 13 12 12 12 11 11 11 11 11 12 11 12 12 13 13 12 13 12 12 13 13 14 14
11 11 11 11 11 11 11 11 11 11 12 12 12 12 12 12 12 12 13 13 13 13 13 13 12 11 11 11 12 12 12 12 12 12 12 12 12 12 12 12 13 14 14
12 12 11 11 12 12 12 12 12 12 13 13 13 13 13 13 13 13 13 13 13 13 13 13 13 13 12 12 12 12 13 13 13 12 12 12 12 12 13 14 14 14 14
13 13 13 13 13 13 13 13 13 13 13 13 14 14 14 14 14 13 13 13 13 13 13 13 13 13 13 13 12 13 13 13 13 13 12 13 13 13 14 14 15 15 15
14 14 15 14 14 14 15 15 15 14 15 15 14 14 14 14 14 14 14 14 14 13 14 14 14 14 14 14 13 13 13 13 13 13 13 14 14 14 15 16 16 16 16
15 15 15 15 15 16 16 16 16 15 16 16 16 15 15 15 15 15 15 15 14 15 15 14 14 15 14 13 13 13 13 13 14 14 14 14 15 16 16 16 16 16 17
17 16 16 16 17 17 17 17 17 17 16 17 17 16 16 16 15 15 15 15 15 16 16 15 15 14 14 14 14 14 14 14 14 14 15 15 15 16 16 17 17 18 18
17 18 17 17 18 19 19 18 18 18 18 18 18 17 17 16 16 16 15 16 16 16 16 16 15 15 14 14 14 15 15 15 15 15 16 16 17 17 17 18 18 18 19
18 18 18 18 18 18 18 18 18 18 18 18 18 18 17 17 17 17 16 16 16 16 16 16 16 16 16 15 15 15 16 16 16 16 17 17 18 18 19 19 19 19 19
19 18 18 19 19 19 18 18 18 18 18 18 18 17 17 17 17 17 17 17 17 16 16 16 17 17 17 17 17 17 17 17 17 18 18 18 18 18 19 19 20 20 20
19 19 19 19 19 19 19 19 19 19 19 18 18 18 17 17 17 17 17 17 17 17 17 17 17 17 18 18 18 18 18 18 18 18 18 18 19 19 19 20 20 21 21
20 20 20 19 19 19 19 20 20 20 19 19 18 18 18 18 17 17 17 17 18 18 18 18 19 19 19 20 20 20 20 20 20 19 19 19 19 20 20 21 21 22 22
21 21 20 20 20 20 20 21 21 21 19 19 19 19 19 18 19 19 19 19 19 19 20 20 20 21 21 21 21 20 21 21 21 21 21 22 22 21 21 21 22 23 23
22 21 21 22 21 21 21 21 20 20 20 19 19 19 19 19 20 20 20 20 20 20 20 20 20 20 21 21 21 21 21 21 22 22 22 23 23 23 23 23 24 24 24
23 23 23 23 22 22 22 22 21 21 21 21 20 20 19 20 21 21 21 21 21 20 20 20 20 21 21 22 22 23 22 22 23 24 24 24 24 24 24 24 25 25 25
24 24 24 23 23 23 23 22 22 22 22 22 22 22 22 23 23 22 22 22 22 22 22 22 22 22 22 22 23 23 23 24 25 25 25 25 25 25 25 25 25 26 26

GEFSMA_500_meanwind_258.txt.gz
Wind_Speed
6 6 6 6 6 6 7 7 7 7 7 7 8 8 8 8 7 7 7 7 8 7 8 8 8 8 8 9 9 9 9 10 10 11 11 11 11 11 11 12 13 13 13
6 6 6 6 6 6 7 7 8 8 8 8 8 8 8 8 8 8 8 8 8 8 8 8 8 8 8 9 9 9 10 11 11 12 12 12 11 12 10 10 11 13 13
6 6 6 6 6 6 7 8 8 8 8 8 8 8 8 8 8 8 8 8 8 8 8 8 7 8 8 8 9 9 10 10 11 12 12 12 12 12 12 11 11 12 12
6 6 6 6 7 7 7 8 7 8 8 8 8 9 8 8 9 9 9 9 9 9 8 8 8 8 8 8 9 10 11 11 11 11 11 11 11 12 12 12 12 13 13
6 6 6 7 7 7 7 8 7 7 8 8 9 9 9 9 9 9 9 9 9 9 9 10 10 9 9 9 9 10 11 11 11 10 11 11 11 11 11 12 13 13 13
7 7 7 7 7 7 7 8 8 8 8 8 8 8 9 9 10 10 10 10 10 10 10 10 10 10 11 11 10 10 11 11 11 11 12 12 12 12 12 12 12 13 13
9 9 8 8 8 8 8 8 8 8 8 8 8 8 8 9 9 10 10 11 11 11 11 11 11 11 11 11 11 11 10 11 11 12 12 13 12 12 13 12 12 13 13
9 9 9 9 9 9 9 8 8 9 9 9 9 9 9 9 10 10 11 11 12 12 12 12 12 12 12 12 11 11 11 12 11 12 13 13 13 13 13 14 14 14 13
10 10 10 10 10 10 9 9 9 9 9 9 10 10 10 10 10 11 11 11 11 12 13 13 12 13 13 12 12 12 12 12 12 12 13 13 13 13 14 14 13 14 13
11 11 11 11 10 10 10 9 9 9 9 9 10 10 10 10 10 11 11 12 12 12 12 12 13 13 13 13 13 13 13 12 11 12 12 13 13 14 14 14 14 14 13
11 11 10 10 10 10 9 9 9 10 10 10 10 10 10 10 11 11 12 12 12 12 12 12 13 13 13 14 14 13 12 12 12 12 12 13 13 13 13 14 14 15 15
12 11 11 11 11 11 10 10 10 10 10 10 11 11 11 11 12 12 13 13 13 14 14 14 13 13 14 14 13 13 13 12 12 12 12 13 13 13 12 13 13 13 13
12 12 12 12 12 11 11 11 11 11 11 12 12 12 12 12 12 12 12 13 13 14 14 14 14 14 13 13 13 13 13 13 12 12 12 12 12 12 12 12 12 13 14
13 12 13 13 13 12 12 12 12 13 13 13 13 13 13 13 13 13 13 13 14 14 14 14 14 14 14 14 13 13 13 14 14 13 13 12 12 12 12 13 14 14 15
14 14 14 14 14 14 14 14 14 15 15 15 15 14 14 14 14 13 13 14 14 14 14 14 14 14 15 14 14 14 14 14 15 15 15 14 13 13 14 14 14 15 15
15 15 15 15 15 15 15 15 15 15 15 15 15 15 15 15 15 15 15 14 14 14 14 14 15 14 15 15 15 15 15 15 15 15 15 15 15 14 14 15 15 15 16
16 16 16 16 16 15 15 15 16 16 16 15 15 15 16 16 16 16 15 15 15 15 15 15 15 15 15 15 16 16 15 15 15 15 15 15 15 15 16 16 16 16 17
17 17 16 16 16 16 16 16 17 16 16 16 16 16 16 16 16 16 15 15 15 15 16 16 16 16 16 16 16 16 16 15 15 15 15 16 16 16 16 16 16 17 17
18 17 17 17 17 17 17 17 18 17 17 17 17 17 17 17 17 17 16 16 15 15 16 16 16 16 16 16 16 16 17 17 16 16 16 17 17 17 17 17 17 18 18
18 18 18 18 18 18 18 18 19 19 19 19 18 18 18 18 18 18 17 17 16 16 16 16 16 16 16 17 17 17 17 18 18 18 18 18 18 18 18 18 19 19 19
19 19 19 19 19 19 19 19 19 19 19 20 19 19 19 19 19 19 18 17 17 17 17 17 16 16 17 17 17 18 18 19 19 19 19 19 19 19 20 20 20 20 20
19 19 19 19 19 19 19 19 20 20 20 20 20 20 20 20 20 20 19 18 18 18 18 18 18 18 17 18 18 19 19 20 20 21 21 21 21 20 20 21 21 21 21
20 20 20 20 20 20 20 20 20 21 21 21 21 21 21 22 22 22 21 20 20 20 20 20 20 19 19 19 19 19 20 21 21 22 22 22 22 22 22 22 22 23 23
22 21 21 21 21 21 21 21 22 22 22 22 22 22 22 22 22 22 22 22 22 21 21 21 21 21 21 21 21 21 21 22 22 23 23 23 23 24 24 24 24 24 25
23 22 22 22 22 22 22 23 23 23 23 23 23 23 23 23 23 23 23 23 22 22 22 22 22 22 23 23 23 23 23 23 23 24 24 25 25 25 26 26 26 26 26
24 24 24 24 24 24 24 24 24 24 24 24 24 24 24 24 23 24 24 24 24 24 24 24 24 24 24 24 24 24 24 24 25 25 26 26 26 26 26 26 26 27 27

GEFSMA_500_meanwind_264.txt.gz
Wind_Speed
8 8 8 7 7 7 7 7 7 7 7 8 7 8 8 8 8 8 8 8 8 8 8 8 9 9 10 10 9 9 9 9 9 9 9 10 10 10 11 11 12 11 11
8 7 7 7 7 7 7 7 7 7 7 8 8 8 8 8 8 8 8 8 8 8 8 9 9 9 9 10 10 10 10 9 10 10 10 10 10 11 11 11 12 12 12
8 7 8 8 7 7 7 8 8 8 8 8 9 9 9 9 9 8 8 9 8 8 9 9 9 10 10 10 9 9 9 9 10 11 11 11 12 12 12 12 13 13 12
8 8 8 8 7 8 8 8 8 8 8 9 10 10 10 9 9 9 9 9 9 9 9 9 10 10 10 10 9 9 9 9 10 10 11 11 12 13 13 14 14 14 13
9 8 8 8 8 8 8 8 8 8 9 9 10 10 10 9 9 9 9 10 10 10 10 9 10 10 10 9 10 10 10 10 10 10 11 12 12 12 12 13 13 13 12
9 9 9 9 9 8 8 9 9 9 9 9 9 10 9 9 9 10 10 10 10 11 10 10 11 10 10 10 10 10 10 10 11 11 11 11 11 10 10 10 11 11 11
9 10 10 10 10 10 9 10 10 9 9 9 10 10 10 10 10 10 10 11 11 12 12 12 11 11 11 11 10 10 10 10 10 10 11 11 11 10 10 10 10 10 11
10 10 10 10 10 10 11 10 10 10 10 10 10 11 11 11 11 11 11 12 12 12 12 12 12 12 12 12 12 12 11 10 10 10 10 11 12 12 11 11 11 12 12
10 11 11 10 10 10 11 11 11 11 11 11 11 11 11 12 12 12 12 12 12 12 12 12 13 13 12 12 12 13 12 11 11 11 11 10 10 11 12 12 12 12 13
11 11 11 10 10 11 11 11 11 11 11 11 11 11 11 12 12 12 12 12 12 12 13 13 13 13 13 12 13 12 12 12 12 11 11 11 11 11 11 12 13 13 13
11 11 12 11 11 11 12 12 12 12 12 11 12 12 12 12 12 12 12 12 12 12 13 13 13 13 13 13 13 12 12 12 12 12 12 12 12 12 12 12 12 13 13
12 12 12 12 12 13 13 13 12 12 12 12 12 12 12 12 12 13 13 13 13 13 13 13 13 13 13 13 13 12 12 12 13 13 13 12 12 12 12 11 11 12 12
12 13 13 12 13 13 13 13 12 12 13 13 13 13 13 13 14 14 14 14 14 14 14 14 14 14 14 13 13 13 13 13 13 13 13 12 12 11 11 11 11 11 11
13 13 13 13 13 13 13 13 12 12 13 13 13 13 14 14 14 14 14 14 14 14 14 14 13 13 13 13 13 13 14 14 13 13 13 13 12 12 11 11 12 13 13
14 14 13 14 14 13 13 13 13 13 13 13 13 14 14 14 14 14 15 14 15 15 14 14 13 13 13 13 13 13 13 14 14 14 14 13 13 13 13 12 13 13 14
14 14 15 14 14 14 14 14 14 14 14 14 14 14 14 14 15 15 14 15 15 15 14 14 14 14 13 14 14 14 14 14 14 14 14 14 14 13 13 14 13 14 14
15 15 15 14 14 15 15 15 15 14 15 15 15 15 15 15 15 15 15 15 15 15 15 15 14 14 15 14 15 15 15 15 15 15 15 15 15 14 14 14 14 14 15
16 16 16 16 15 16 16 16 16 16 16 16 16 16 16 16 16 16 16 16 16 16 15 15 15 15 15 15 15 16 16 16 16 16 16 16 16 16 16 16 15 16 16
17 17 17 17 17 17 18 18 17 17 17 17 17 17 18 17 17 17 17 17 17 17 16 16 16 15 15 16 16 16 17 17 17 17 16 16 17 16 16 17 17 17 17
18 18 18 18 18 19 19 19 19 18 18 18 19 19 19 19 18 18 18 18 18 18 18 18 18 17 17 17 17 17 17 17 18 17 17 17 18 17 18 18 18 19 19
19 19 19 19 19 19 19 19 20 20 20 20 20 20 20 20 20 20 20 20 20 20 20 19 19 19 19 19 18 18 18 18 19 19 18 19 19 19 19 19 19 19 19
21 21 20 20 20 20 20 21 21 21 21 21 21 22 22 22 21 21 21 21 21 21 21 21 20 20 21 20 20 20 20 19 20 20 20 20 21 21 21 21 21 21 21
23 23 22 22 21 21 21 21 21 22 22 22 22 22 23 23 23 22 22 22 22 22 22 22 22 22 21 21 21 22 22 22 21 21 21 21 22 22 22 22 22 22 23
25 25 24 23 23 22 22 23 23 23 24 24 24 24 24 23 23 23 23 23 23 23 23 23 23 23 23 23 22 23 22 22 22 22 22 22 23 23 23 23 23 24 24
26 26 25 25 24 24 24 25 25 25 25 25 25 25 25 25 24 24 24 24 24 24 24 24 24 24 24 24 24 24 24 24 24 23 23 23 24 24 24 24 24 25 25
26 25 26 26 26 26 26 26 26 26 26 26 26 26 26 27 26 26 26 25 25 26 26 25 25 25 25 25 26 25 26 25 25 25 25 25 25 26 25 25 25 26 26